Pensacola, FL

7:08 PM CST on February 27, 2017 (GMT -0600)
Pensacola Regional

Weather History for KPNS - October, 2013

Change the Weather History Date:

Wednesday, October 30, 2013

  Actual Average Record
Temperature  
Mean Temperature 72 °F 65 °F  
Max Temperature 80 °F 75 °F 88 °F (2016)
Min Temperature 63 °F 56 °F 38 °F (1963)
Degree Days  
Heating Degree Days 0 3  
Month to date heating degree days 15 32  
Since 1 July heating degree days 15 33  
Cooling Degree Days 7 3  
Month to date cooling degree days 218 176  
Year to date cooling degree days 2676 2546  
Growing Degree Days 21 (Base 50)    
Moisture  
Dew Point 65 °F    
Average Humidity 82    
Maximum Humidity 93    
Minimum Humidity 71    
Precipitation  
Precipitation 0.00 in 0.16 in 4.89 in (1967)
Month to date precipitation 1.89 5.07  
Year to date precipitation 65.55 55.82  
Sea Level Pressure  
Sea Level Pressure 30.18 in    
Wind  
Wind Speed 8 mph (ESE)    
Max Wind Speed 15 mph    
Max Gust Speed 21 mph    
Visibility 10 miles    
Events      
T = Trace of Precipitation, MM = Missing Value Source: NWS Daily Summary

Daily Weather History Graph

Daily Weather History Graph

Search for Another Location

Airport or City:

Trip Planner

Search our weather history database for the weather conditions in past years. The results will help you decide how hot, cold, wet, or windy it might be!

Date:

Astronomy

Oct. 30, 2013 Rise Set
Actual Time 7:01 AM CDT 6:02 PM CDT
Civil Twilight 6:37 AM CDT 6:27 PM CDT
Nautical Twilight 6:08 AM CDT 6:55 PM CDT
Astronomical Twilight 5:40 AM CDT 7:23 PM CDT
Moon 3:06 AM CDT (10/30) 3:33 PM CDT (10/30)
Length of Visible Light 11h 50m
Length of Day
11h 00m
Waning Crescent, 17% of the Moon is Illuminated
Oct 30
Waning Crescent
Nov 3
New
Nov 9
First Quarter
Nov 17
Full
Nov 25
Last Quarter

Hourly Weather History & Observations

Time (CDT) Temp. Dew Point Humidity Pressure Visibility Wind Dir Wind Speed Gust Speed Precip Events Conditions
12:53 AM 63.0 °F 60.1 °F 90% 30.22 in 9.0 mi Calm Calm - N/A   Clear
1:53 AM 63.0 °F 60.1 °F 90% 30.22 in 9.0 mi NE 4.6 mph - N/A   Clear
2:53 AM 64.0 °F 61.0 °F 90% 30.20 in 10.0 mi NE 4.6 mph - N/A   Clear
3:53 AM 64.0 °F 60.1 °F 87% 30.20 in 10.0 mi NE 5.8 mph - N/A   Clear
4:53 AM 63.0 °F 60.1 °F 90% 30.20 in 10.0 mi ENE 3.5 mph - N/A   Clear
5:53 AM 64.0 °F 60.1 °F 87% 30.21 in 10.0 mi NE 5.8 mph - N/A   Clear
6:53 AM 63.0 °F 59.0 °F 87% 30.22 in 10.0 mi NE 4.6 mph - N/A   Clear
7:53 AM 64.0 °F 59.0 °F 84% 30.22 in 9.0 mi NE 5.8 mph - N/A   Clear
8:53 AM 69.1 °F 63.0 °F 81% 30.23 in 9.0 mi East 6.9 mph - N/A   Clear
9:53 AM 73.0 °F 66.0 °F 79% 30.24 in 9.0 mi East 6.9 mph - N/A   Clear
10:17 AM 73.4 °F 66.2 °F 78% 30.23 in 9.0 mi East 4.6 mph - N/A   Mostly Cloudy
10:53 AM 75.9 °F 69.1 °F 79% 30.23 in 9.0 mi ESE 11.5 mph - N/A   Mostly Cloudy
11:53 AM 77.0 °F 68.0 °F 74% 30.23 in 10.0 mi ESE 15.0 mph 20.7 mph N/A   Mostly Cloudy
12:53 PM 79.0 °F 68.0 °F 69% 30.21 in 10.0 mi ESE 13.8 mph - N/A   Mostly Cloudy
1:14 PM 78.8 °F 68.0 °F 69% 30.19 in 10.0 mi ESE 11.5 mph - N/A   Scattered Clouds
1:53 PM 78.1 °F 68.0 °F 71% 30.18 in 10.0 mi SE 12.7 mph - N/A   Scattered Clouds
2:53 PM 75.9 °F 68.0 °F 76% 30.17 in 10.0 mi SE 9.2 mph - N/A   Scattered Clouds
3:53 PM 75.9 °F 68.0 °F 76% 30.15 in 10.0 mi ESE 6.9 mph - N/A   Clear
4:53 PM 75.0 °F 68.0 °F 79% 30.14 in 10.0 mi ESE 6.9 mph - N/A   Clear
5:53 PM 73.0 °F 68.0 °F 84% 30.13 in 10.0 mi ESE 5.8 mph - N/A   Clear
6:53 PM 71.1 °F 66.9 °F 87% 30.14 in 10.0 mi SE 4.6 mph - N/A   Clear
7:53 PM 70.0 °F 66.0 °F 87% 30.14 in 10.0 mi SE 4.6 mph - N/A   Clear
8:53 PM 70.0 °F 66.9 °F 90% 30.14 in 10.0 mi SE 5.8 mph - N/A   Clear
9:53 PM 73.0 °F 66.9 °F 81% 30.14 in 10.0 mi SE 9.2 mph - N/A   Clear
10:53 PM 72.0 °F 66.9 °F 84% 30.12 in 10.0 mi SE 8.1 mph - N/A   Clear
11:53 PM 72.0 °F 66.0 °F 81% 30.11 in 10.0 mi SE 9.2 mph - N/A   Clear